| time (UTC) | temp F | wind direction | speed MPH | gust MPH | rain 1hr in | rain 24hr in | rain mn in | humidity % | barometer mb |
| 20260506111552 | 72 | 112 | 5.0 | 13.0 | 0.00 | 0.00 | 0.00 | 43 | 1010.6 |
| 20260506111050 | 73 | 201 | 7.0 | 13.0 | 0.00 | 0.00 | 0.00 | 43 | 1010.5 |
| 20260506110549 | 73 | 124 | 6.0 | 12.0 | 0.00 | 0.00 | 0.00 | 43 | 1010.6 |
| 20260506110048 | 73 | 109 | 5.0 | 9.0 | 0.00 | 0.00 | 0.00 | 45 | 1010.5 |
| 20260506105548 | 73 | 121 | 4.0 | 10.0 | 0.00 | 0.00 | 0.00 | 47 | 1010.5 |
| 20260506105046 | 72 | 113 | 2.0 | 10.0 | 0.00 | 0.00 | 0.00 | 46 | 1010.6 |
| 20260506104554 | 72 | 108 | 5.0 | 9.0 | 0.00 | 0.00 | 0.00 | 47 | 1010.6 |
| 20260506104045 | 72 | 105 | 2.0 | 9.0 | 0.00 | 0.00 | 0.00 | 47 | 1010.7 |
| 20260506103544 | 71 | 105 | 4.0 | 9.0 | 0.00 | 0.00 | 0.00 | 47 | 1010.7 |
| 20260506103047 | 71 | 127 | 4.0 | 9.0 | 0.00 | 0.00 | 0.00 | 48 | 1010.8 |
| 20260506102544 | 72 | 113 | 3.0 | 9.0 | 0.00 | 0.00 | 0.00 | 49 | 1010.8 |
| 20260506102044 | 72 | 113 | 5.0 | 9.0 | 0.00 | 0.00 | 0.00 | 50 | 1010.9 |
| 20260506101549 | 71 | 85 | 3.0 | 9.0 | 0.00 | 0.00 | 0.00 | 48 | 1011.0 |
| 20260506101043 | 72 | 91 | 5.0 | 9.0 | 0.00 | 0.00 | 0.00 | 49 | 1011.1 |
| 20260506100542 | 72 | 133 | 4.0 | 8.0 | 0.00 | 0.00 | 0.00 | 52 | 1011.0 |
| 20260506100043 | 72 | 111 | 3.0 | 8.0 | 0.00 | 0.00 | 0.00 | 52 | 1011.1 |
| 20260506095541 | 72 | 178 | 3.0 | 9.0 | 0.00 | 0.00 | 0.00 | 50 | 1011.0 |
| 20260506095043 | 72 | 101 | 3.0 | 9.0 | 0.00 | 0.00 | 0.00 | 53 | 1011.1 |
| 20260506094537 | 72 | 115 | 3.0 | 9.0 | 0.00 | 0.00 | 0.00 | 53 | 1011.1 |
| 20260506094037 | 72 | 97 | 4.0 | 9.0 | 0.00 | 0.00 | 0.00 | 54 | 1011.1 |
| 20260506093539 | 71 | 119 | 2.0 | 9.0 | 0.00 | 0.00 | 0.00 | 56 | 1011.1 |
| 20260506093035 | 71 | 126 | 4.0 | 8.0 | 0.00 | 0.00 | 0.00 | 56 | 1011.1 |
| 20260506092533 | 71 | 128 | 4.0 | 9.0 | 0.00 | 0.00 | 0.00 | 55 | 1011.0 |
| 20260506092033 | 71 | 115 | 3.0 | 9.0 | 0.00 | 0.00 | 0.00 | 54 | 1011.0 |
| 20260506091531 | 71 | 67 | 0.0 | 9.0 | 0.00 | 0.00 | 0.00 | 55 | 1010.8 |
| 20260506091029 | 71 | 107 | 4.0 | 9.0 | 0.00 | 0.00 | 0.00 | 54 | 1010.9 |
| 20260506090531 | 71 | 74 | 2.0 | 7.0 | 0.00 | 0.00 | 0.00 | 54 | 1010.9 |
| 20260506090026 | 70 | 89 | 2.0 | 7.0 | 0.00 | 0.00 | 0.00 | 55 | 1010.8 |
| 20260506085524 | 70 | 81 | 3.0 | 8.0 | 0.00 | 0.00 | 0.00 | 56 | 1011.0 |
| 20260506085023 | 70 | 128 | 4.0 | 8.0 | 0.00 | 0.00 | 0.00 | 55 | 1010.9 |
| 20260506084532 | 69 | 66 | 3.0 | 10.0 | 0.00 | 0.00 | 0.00 | 56 | 1010.9 |
| 20260506084020 | 69 | 99 | 5.0 | 10.0 | 0.00 | 0.00 | 0.00 | 56 | 1011.1 |
| 20260506083524 | 69 | 121 | 7.0 | 10.0 | 0.00 | 0.00 | 0.00 | 57 | 1011.0 |
| 20260506083018 | 69 | 49 | 5.0 | 7.0 | 0.00 | 0.00 | 0.00 | 58 | 1010.8 |
| 20260506082517 | 70 | 44 | 3.0 | 6.0 | 0.00 | 0.00 | 0.00 | 57 | 1010.7 |
| 20260506082020 | 70 | 43 | 3.0 | 5.0 | 0.00 | 0.00 | 0.00 | 57 | 1010.7 |
| 20260506081517 | 69 | 42 | 2.0 | 6.0 | 0.00 | 0.00 | 0.00 | 58 | 1010.7 |
| 20260506081017 | 69 | 49 | 3.0 | 7.0 | 0.00 | 0.00 | 0.00 | 58 | 1010.7 |
| 20260506080512 | 69 | 47 | 4.0 | 7.0 | 0.00 | 0.00 | 0.00 | 58 | 1010.7 |
| 20260506073503 | 69 | 32 | 1.0 | 5.0 | 0.00 | 0.00 | 0.00 | 57 | 1010.3 |
| 20260506073002 | 69 | 32 | 0.0 | 3.0 | 0.00 | 0.00 | 0.00 | 57 | 1010.2 |
| 20260506072501 | 68 | 31 | 1.0 | 3.0 | 0.00 | 0.00 | 0.00 | 55 | 1010.2 |
| 20260506072101 | 68 | 32 | 1.0 | 4.0 | 0.00 | 0.00 | 0.00 | 53 | 1010.2 |
| 20260506071558 | 68 | 29 | 0.0 | 4.0 | 0.00 | 0.00 | 0.00 | 49 | 1010.1 |
| 20260506071057 | 68 | 29 | 1.0 | 3.0 | 0.00 | 0.00 | 0.00 | 47 | 1010.0 |
| 20260506070556 | 67 | 22 | 1.0 | 4.0 | 0.00 | 0.00 | 0.00 | 47 | 1010.0 |
| 20260506062042 | 60 | 327 | 2.0 | 6.0 | 0.00 | 0.00 | 0.00 | 62 | 1010.0 |
| 20260506061542 | 59 | 338 | 3.0 | 6.0 | 0.00 | 0.00 | 0.00 | 61 | 1010.1 |
| 20260506061043 | 59 | 342 | 1.0 | 2.0 | 0.00 | 0.00 | 0.00 | 68 | 1010.0 |
| 20260506060540 | 59 | 342 | 0.0 | 3.0 | 0.00 | 0.00 | 0.00 | 66 | 1010.1 |
| 20260506051033 | 61 | 24 | 0.0 | 1.0 | 0.00 | 0.00 | 0.00 | 67 | 1009.6 |
| 20260506050530 | 61 | 28 | 0.0 | 4.0 | 0.00 | 0.00 | 0.00 | 66 | 1009.5 |
| 20260506045025 | 62 | 31 | 0.0 | 4.0 | 0.00 | 0.00 | 0.00 | 61 | 1009.5 |
| 20260506044524 | 63 | 32 | 2.0 | 3.0 | 0.00 | 0.00 | 0.00 | 58 | 1009.5 |
| 20260506044021 | 63 | 30 | 1.0 | 4.0 | 0.00 | 0.00 | 0.00 | 48 | 1009.6 |
| 20260506043523 | 63 | 30 | 1.0 | 5.0 | 0.00 | 0.00 | 0.00 | 47 | 1009.6 |
| 20260506043020 | 63 | 30 | 1.0 | 5.0 | 0.00 | 0.00 | 0.00 | 45 | 1009.4 |
| 20260506042522 | 63 | 21 | 2.0 | 4.0 | 0.00 | 0.00 | 0.00 | 43 | 1009.4 |
| 20260506042021 | 64 | 22 | 2.0 | 9.0 | 0.00 | 0.00 | 0.00 | 44 | 1009.5 |
| 20260506041520 | 64 | 29 | 4.0 | 10.0 | 0.00 | 0.00 | 0.00 | 43 | 1009.4 |
| 20260506041019 | 63 | 14 | 5.0 | 10.0 | 0.00 | 0.00 | 0.00 | 43 | 1009.4 |
| 20260506040519 | 63 | 355 | 5.0 | 8.0 | 0.00 | 0.00 | 0.00 | 44 | 1009.4 |
| 20260506040033 | 63 | 345 | 5.0 | 8.0 | 0.00 | 0.00 | 0.00 | 44 | 1009.5 |
| 20260506035519 | 63 | 10 | 3.0 | 6.0 | 0.00 | 0.00 | 0.00 | 44 | 1009.5 |
| 20260506035017 | 63 | 27 | 2.0 | 8.0 | 0.00 | 0.00 | 0.00 | 45 | 1009.4 |
| 20260506034516 | 63 | 9 | 2.0 | 8.0 | 0.00 | 0.00 | 0.00 | 44 | 1009.5 |
| 20260506034014 | 64 | 11 | 3.0 | 6.0 | 0.00 | 0.00 | 0.00 | 44 | 1009.6 |
| 20260506033515 | 64 | 9 | 1.0 | 6.0 | 0.00 | 0.00 | 0.00 | 44 | 1009.6 |
| 20260506033015 | 64 | 19 | 2.0 | 6.0 | 0.00 | 0.00 | 0.00 | 44 | 1009.6 |
| 20260506032516 | 64 | 24 | 3.0 | 9.0 | 0.00 | 0.00 | 0.00 | 43 | 1009.6 |
| 20260506032014 | 64 | 15 | 4.0 | 10.0 | 0.00 | 0.00 | 0.00 | 44 | 1009.6 |
| 20260506031515 | 64 | 9 | 3.0 | 11.0 | 0.00 | 0.00 | 0.00 | 44 | 1009.6 |
| 20260506031016 | 64 | 20 | 5.0 | 9.0 | 0.00 | 0.00 | 0.00 | 43 | 1009.6 |
| 20260506030513 | 64 | 24 | 3.0 | 9.0 | 0.00 | 0.00 | 0.00 | 43 | 1009.6 |
| 20260506030015 | 64 | 28 | 4.0 | 9.0 | 0.00 | 0.00 | 0.00 | 43 | 1009.6 |
| 20260506025512 | 64 | 13 | 2.0 | 6.0 | 0.00 | 0.00 | 0.00 | 44 | 1009.7 |
| 20260506025013 | 64 | 12 | 3.0 | 6.0 | 0.00 | 0.00 | 0.00 | 43 | 1009.6 |
| 20260506024511 | 64 | 360 | 2.0 | 5.0 | 0.00 | 0.00 | 0.00 | 44 | 1009.6 |
| 20260506024011 | 64 | 9 | 2.0 | 5.0 | 0.00 | 0.00 | 0.00 | 44 | 1009.7 |
| 20260506023514 | 64 | 19 | 3.0 | 5.0 | 0.00 | 0.00 | 0.00 | 44 | 1009.6 |
| 20260506023010 | 64 | 17 | 3.0 | 8.0 | 0.00 | 0.00 | 0.00 | 44 | 1009.7 |
| 20260506022509 | 64 | 5 | 3.0 | 8.0 | 0.00 | 0.00 | 0.00 | 44 | 1009.7 |
| 20260506022012 | 64 | 9 | 4.0 | 7.0 | 0.00 | 0.00 | 0.00 | 44 | 1009.7 |
| 20260506021516 | 64 | 12 | 3.0 | 6.0 | 0.00 | 0.00 | 0.00 | 43 | 1009.8 |
| 20260506021008 | 65 | 18 | 3.0 | 6.0 | 0.00 | 0.00 | 0.00 | 43 | 1009.7 |
| 20260506020507 | 65 | 12 | 2.0 | 9.0 | 0.00 | 0.00 | 0.00 | 43 | 1009.8 |
| 20260506020006 | 65 | 355 | 3.0 | 9.0 | 0.00 | 0.00 | 0.00 | 43 | 1009.8 |
| 20260506015505 | 65 | 29 | 3.0 | 6.0 | 0.00 | 0.00 | 0.00 | 43 | 1009.9 |
| 20260506015009 | 65 | 77 | 4.0 | 7.0 | 0.00 | 0.00 | 0.00 | 43 | 1009.9 |
| 20260506014504 | 65 | 30 | 3.0 | 8.0 | 0.00 | 0.00 | 0.00 | 43 | 1010.0 |
| 20260506014003 | 65 | 13 | 3.0 | 8.0 | 0.00 | 0.00 | 0.00 | 43 | 1010.0 |
| 20260506013502 | 65 | 42 | 4.0 | 8.0 | 0.00 | 0.00 | 0.00 | 43 | 1010.0 |
| 20260506013002 | 65 | 11 | 4.0 | 7.0 | 0.00 | 0.00 | 0.00 | 43 | 1010.1 |
| 20260506012501 | 65 | 26 | 5.0 | 7.0 | 0.00 | 0.00 | 0.00 | 43 | 1010.1 |
| 20260506012100 | 66 | 15 | 3.0 | 10.0 | 0.00 | 0.00 | 0.00 | 43 | 1010.1 |
| 20260506011600 | 66 | 28 | 5.0 | 10.0 | 0.00 | 0.00 | 0.00 | 42 | 1010.2 |
| 20260506011100 | 66 | 32 | 3.0 | 10.0 | 0.00 | 0.00 | 0.00 | 42 | 1010.1 |
| 20260506010559 | 66 | 355 | 6.0 | 15.0 | 0.00 | 0.00 | 0.00 | 43 | 1010.2 |
| 20260506010117 | 66 | 344 | 5.0 | 15.0 | 0.00 | 0.00 | 0.00 | 42 | 1010.2 |
| 20260506005559 | 66 | 346 | 5.0 | 11.0 | 0.00 | 0.00 | 0.00 | 42 | 1010.1 |
| 20260506005058 | 66 | 84 | 3.0 | 6.0 | 0.00 | 0.00 | 0.00 | 42 | 1010.3 |
| 20260506004557 | 66 | 355 | 2.0 | 11.0 | 0.00 | 0.00 | 0.00 | 42 | 1010.3 |
| 20260506004055 | 66 | 360 | 5.0 | 11.0 | 0.00 | 0.00 | 0.00 | 42 | 1010.2 |
| 20260506003556 | 66 | 52 | 4.0 | 12.0 | 0.00 | 0.00 | 0.00 | 42 | 1010.4 |
| 20260506003055 | 67 | 351 | 6.0 | 17.0 | 0.00 | 0.00 | 0.00 | 42 | 1010.4 |
| 20260506002553 | 67 | 360 | 11.0 | 17.0 | 0.00 | 0.00 | 0.00 | 43 | 1010.4 |
| 20260506002052 | 67 | 348 | 7.0 | 12.0 | 0.00 | 0.00 | 0.00 | 42 | 1010.4 |
| 20260506001552 | 67 | 360 | 4.0 | 13.0 | 0.00 | 0.00 | 0.00 | 42 | 1010.4 |
| 20260506001053 | 67 | 5 | 3.0 | 17.0 | 0.00 | 0.00 | 0.00 | 41 | 1010.6 |
| 20260506000551 | 67 | 348 | 6.0 | 17.0 | 0.00 | 0.00 | 0.00 | 41 | 1010.5 |
| 20260506000050 | 67 | 360 | 7.0 | 15.0 | 0.00 | 0.00 | 0.00 | 40 | 1010.5 |
| 20260505235548 | 68 | 30 | 7.0 | 13.0 | 0.00 | 0.00 | 0.00 | 39 | 1010.4 |
| 20260505235052 | 68 | 360 | 6.0 | 13.0 | 0.00 | 0.00 | 0.00 | 40 | 1010.4 |
| 20260505234603 | 68 | 5 | 9.0 | 13.0 | 0.00 | 0.00 | 0.00 | 39 | 1010.5 |
| 20260505234046 | 68 | 9 | 4.0 | 11.0 | 0.00 | 0.00 | 0.00 | 39 | 1010.4 |
| 20260505233545 | 68 | 5 | 6.0 | 10.0 | 0.00 | 0.00 | 0.00 | 38 | 1010.4 |
| 20260505233045 | 68 | 355 | 3.0 | 10.0 | 0.00 | 0.00 | 0.00 | 38 | 1010.5 |
| 20260505232545 | 68 | 24 | 5.0 | 12.0 | 0.00 | 0.00 | 0.00 | 38 | 1010.4 |
| 20260505232046 | 68 | 5 | 4.0 | 12.0 | 0.00 | 0.00 | 0.00 | 39 | 1010.4 |
| 20260505231545 | 68 | 355 | 5.0 | 10.0 | 0.00 | 0.00 | 0.00 | 38 | 1010.4 |
| 20260505231043 | 68 | 360 | 2.0 | 9.0 | 0.00 | 0.00 | 0.00 | 39 | 1010.4 |
| 20260505230543 | 69 | 16 | 3.0 | 11.0 | 0.00 | 0.00 | 0.00 | 38 | 1010.4 |
| 20260505230043 | 69 | 12 | 7.0 | 11.0 | 0.00 | 0.00 | 0.00 | 38 | 1010.4 |
| 20260505225544 | 69 | 39 | 5.0 | 15.0 | 0.00 | 0.00 | 0.00 | 38 | 1010.4 |
| 20260505225043 | 69 | 355 | 5.0 | 15.0 | 0.00 | 0.00 | 0.00 | 38 | 1010.4 |
| 20260505224543 | 69 | 22 | 5.0 | 14.0 | 0.00 | 0.00 | 0.00 | 38 | 1010.5 |
| 20260505224045 | 69 | 360 | 7.0 | 14.0 | 0.00 | 0.00 | 0.00 | 38 | 1010.5 |
| 20260505223541 | 69 | 355 | 4.0 | 13.0 | 0.00 | 0.00 | 0.00 | 38 | 1010.6 |
| 20260505223041 | 69 | 22 | 7.0 | 13.0 | 0.00 | 0.00 | 0.00 | 38 | 1010.6 |
| 20260505222542 | 69 | 350 | 5.0 | 12.0 | 0.00 | 0.00 | 0.00 | 37 | 1010.7 |
| 20260505222039 | 69 | 360 | 6.0 | 11.0 | 0.00 | 0.00 | 0.00 | 37 | 1010.8 |
| 20260505221539 | 69 | 20 | 5.0 | 14.0 | 0.00 | 0.00 | 0.00 | 37 | 1010.7 |
| 20260505221038 | 69 | 17 | 5.0 | 20.0 | 0.00 | 0.00 | 0.00 | 37 | 1010.7 |
| 20260505220539 | 69 | 355 | 11.0 | 20.0 | 0.00 | 0.00 | 0.00 | 37 | 1010.7 |
| 20260505220041 | 69 | 26 | 5.0 | 12.0 | 0.00 | 0.00 | 0.00 | 37 | 1010.6 |
| 20260505215537 | 69 | 355 | 4.0 | 14.0 | 0.00 | 0.00 | 0.00 | 36 | 1010.7 |
| 20260505215039 | 69 | 360 | 8.0 | 17.0 | 0.00 | 0.00 | 0.00 | 37 | 1010.8 |
| 20260505214559 | 69 | 32 | 10.0 | 17.0 | 0.00 | 0.00 | 0.00 | 37 | 1010.7 |
| 20260505214037 | 69 | 22 | 6.0 | 13.0 | 0.00 | 0.00 | 0.00 | 37 | 1010.8 |
| 20260505213539 | 69 | 344 | 3.0 | 13.0 | 0.00 | 0.00 | 0.00 | 37 | 1010.8 |
| 20260505213036 | 69 | 5 | 7.0 | 17.0 | 0.00 | 0.00 | 0.00 | 37 | 1010.8 |
| 20260505212535 | 69 | 25 | 7.0 | 17.0 | 0.00 | 0.00 | 0.00 | 37 | 1010.8 |
| 20260505212034 | 69 | 360 | 7.0 | 17.0 | 0.00 | 0.00 | 0.00 | 37 | 1010.8 |
| 20260505211535 | 69 | 28 | 9.0 | 17.0 | 0.00 | 0.00 | 0.00 | 37 | 1010.7 |
| 20260505211035 | 69 | 5 | 6.0 | 13.0 | 0.00 | 0.00 | 0.00 | 37 | 1010.9 |
| 20260505210534 | 69 | 360 | 5.0 | 13.0 | 0.00 | 0.00 | 0.00 | 36 | 1010.9 |
| 20260505210033 | 69 | 342 | 4.0 | 14.0 | 0.00 | 0.00 | 0.00 | 36 | 1010.8 |
| 20260505205535 | 69 | 5 | 8.0 | 13.0 | 0.00 | 0.00 | 0.00 | 36 | 1010.8 |
| 20260505205034 | 69 | 355 | 3.0 | 12.0 | 0.00 | 0.00 | 0.00 | 36 | 1010.7 |
| 20260505204537 | 69 | 351 | 5.0 | 12.0 | 0.00 | 0.00 | 0.00 | 36 | 1010.8 |
| 20260505204034 | 69 | 25 | 2.0 | 12.0 | 0.00 | 0.00 | 0.00 | 36 | 1010.8 |
| 20260505203532 | 69 | 360 | 6.0 | 12.0 | 0.00 | 0.00 | 0.00 | 35 | 1010.8 |
| 20260505203040 | 69 | 5 | 5.0 | 13.0 | 0.00 | 0.00 | 0.00 | 36 | 1010.7 |
| 20260505202532 | 69 | 5 | 7.0 | 13.0 | 0.00 | 0.00 | 0.00 | 35 | 1010.8 |
| 20260505202033 | 69 | 45 | 8.0 | 19.0 | 0.00 | 0.00 | 0.00 | 35 | 1011.0 |
| 20260505201537 | 69 | 340 | 7.0 | 19.0 | 0.00 | 0.00 | 0.00 | 36 | 1010.9 |
| 20260505201031 | 68 | 350 | 7.0 | 14.0 | 0.00 | 0.00 | 0.00 | 37 | 1011.0 |
| 20260505200531 | 68 | 349 | 5.0 | 14.0 | 0.00 | 0.00 | 0.00 | 38 | 1010.9 |
| 20260505200031 | 67 | 325 | 5.0 | 11.0 | 0.00 | 0.00 | 0.00 | 40 | 1010.8 |
| 20260505195529 | 66 | 38 | 5.0 | 10.0 | 0.00 | 0.00 | 0.00 | 44 | 1010.9 |
| 20260505195030 | 65 | 360 | 5.0 | 10.0 | 0.00 | 0.00 | 0.00 | 59 | 1010.9 |
| 20260505194531 | 66 | 20 | 2.0 | 4.0 | 0.00 | 0.00 | 0.00 | 64 | 1011.0 |
| 20260505194029 | 66 | 54 | 1.0 | 6.0 | 0.00 | 0.00 | 0.00 | 60 | 1010.9 |
| 20260505193528 | 65 | 5 | 2.0 | 6.0 | 0.00 | 0.00 | 0.00 | 53 | 1010.9 |
| 20260505193028 | 65 | 339 | 0.0 | 4.0 | 0.00 | 0.00 | 0.00 | 55 | 1010.9 |
| 20260505192530 | 65 | 280 | 2.0 | 4.0 | 0.00 | 0.00 | 0.00 | 64 | 1010.9 |
| 20260505192028 | 66 | 271 | 1.0 | 3.0 | 0.00 | 0.00 | 0.00 | 65 | 1010.9 |
| 20260505191529 | 66 | 194 | 0.0 | 2.0 | 0.00 | 0.00 | 0.00 | 65 | 1010.8 |
| 20260505191027 | 66 | 194 | 0.0 | 2.0 | 0.00 | 0.00 | 0.00 | 65 | 1010.7 |
| 20260505190528 | 66 | 194 | 0.0 | 2.0 | 0.00 | 0.00 | 0.00 | 65 | 1010.8 |
| 20260505190027 | 66 | 194 | 0.0 | 2.0 | 0.00 | 0.00 | 0.00 | 64 | 1010.7 |
| 20260505185528 | 67 | 194 | 0.0 | 2.0 | 0.00 | 0.00 | 0.00 | 64 | 1010.8 |
| 20260505185027 | 67 | 194 | 0.0 | 0.0 | 0.00 | 0.00 | 0.00 | 63 | 1010.8 |
| 20260505184528 | 67 | 194 | 0.0 | 1.0 | 0.00 | 0.00 | 0.00 | 63 | 1010.7 |
| 20260505184026 | 67 | 194 | 0.0 | 2.0 | 0.00 | 0.00 | 0.00 | 63 | 1010.8 |
| 20260505183526 | 67 | 194 | 1.0 | 3.0 | 0.00 | 0.00 | 0.00 | 62 | 1010.8 |
| 20260505183026 | 67 | 194 | 1.0 | 3.0 | 0.00 | 0.00 | 0.00 | 62 | 1010.8 |
| 20260505182527 | 67 | 160 | 1.0 | 3.0 | 0.00 | 0.00 | 0.00 | 62 | 1010.7 |
| 20260505182026 | 68 | 144 | 1.0 | 3.0 | 0.00 | 0.00 | 0.00 | 61 | 1010.7 |
| 20260505181526 | 68 | 144 | 0.0 | 0.0 | 0.00 | 0.00 | 0.00 | 62 | 1010.6 |
| 20260505181025 | 68 | 144 | 0.0 | 1.0 | 0.00 | 0.00 | 0.00 | 61 | 1010.6 |
| 20260505180525 | 67 | 144 | 0.0 | 1.0 | 0.00 | 0.00 | 0.00 | 61 | 1010.5 |
| 20260505180048 | 67 | 144 | 0.0 | 2.0 | 0.00 | 0.00 | 0.00 | 62 | 1010.6 |
| 20260505175528 | 67 | 144 | 0.0 | 2.0 | 0.00 | 0.00 | 0.00 | 61 | 1010.6 |
| 20260505175029 | 67 | 144 | 1.0 | 3.0 | 0.00 | 0.00 | 0.00 | 61 | 1010.6 |
| 20260505174546 | 67 | 144 | 1.0 | 4.0 | 0.00 | 0.00 | 0.00 | 61 | 1010.6 |
| 20260505174024 | 67 | 144 | 1.0 | 4.0 | 0.00 | 0.00 | 0.00 | 61 | 1010.8 |
| 20260505173526 | 67 | 201 | 0.0 | 3.0 | 0.00 | 0.00 | 0.00 | 61 | 1010.8 |
| 20260505173030 | 67 | 202 | 0.0 | 4.0 | 0.00 | 0.00 | 0.00 | 62 | 1011.0 |
| 20260505172522 | 67 | 202 | 0.0 | 5.0 | 0.00 | 0.00 | 0.00 | 62 | 1011.1 |
| 20260505172023 | 67 | 252 | 1.0 | 8.0 | 0.00 | 0.00 | 0.00 | 62 | 1011.2 |
| 20260505171524 | 67 | 163 | 5.0 | 10.0 | 0.00 | 0.00 | 0.00 | 62 | 1011.3 |
| 20260505171021 | 67 | 161 | 5.0 | 10.0 | 0.00 | 0.00 | 0.00 | 61 | 1011.2 |
| 20260505170521 | 67 | 220 | 4.0 | 12.0 | 0.00 | 0.00 | 0.00 | 61 | 1011.0 |
| 20260505170022 | 68 | 141 | 5.0 | 12.0 | 0.00 | 0.00 | 0.00 | 59 | 1011.0 |
| 20260505165522 | 68 | 184 | 5.0 | 10.0 | 0.00 | 0.00 | 0.00 | 58 | 1011.1 |
| 20260505165024 | 68 | 213 | 5.0 | 10.0 | 0.00 | 0.00 | 0.00 | 59 | 1011.1 |
| 20260505164521 | 68 | 175 | 6.0 | 11.0 | 0.00 | 0.00 | 0.00 | 59 | 1010.9 |
| 20260505164020 | 68 | 154 | 7.0 | 10.0 | 0.00 | 0.00 | 0.00 | 59 | 1010.9 |
| 20260505163520 | 69 | 169 | 6.0 | 13.0 | 0.00 | 0.00 | 0.00 | 58 | 1010.9 |
| 20260505163021 | 69 | 183 | 4.0 | 14.0 | 0.00 | 0.00 | 0.00 | 57 | 1011.0 |
| 20260505162521 | 69 | 194 | 6.0 | 14.0 | 0.00 | 0.00 | 0.00 | 57 | 1011.0 |
| 20260505162021 | 69 | 164 | 5.0 | 13.0 | 0.00 | 0.00 | 0.00 | 57 | 1010.9 |
| 20260505161519 | 70 | 162 | 7.0 | 14.0 | 0.00 | 0.00 | 0.00 | 56 | 1010.9 |
| 20260505161024 | 70 | 177 | 8.0 | 18.0 | 0.00 | 0.00 | 0.00 | 55 | 1010.8 |
| 20260505160519 | 70 | 168 | 8.0 | 19.0 | 0.00 | 0.00 | 0.00 | 55 | 1010.9 |
| 20260505153015 | 71 | 145 | 5.0 | 14.0 | 0.00 | 0.00 | 0.00 | 51 | 1010.9 |
| 20260505152516 | 71 | 186 | 8.0 | 14.0 | 0.00 | 0.00 | 0.00 | 50 | 1011.0 |
| 20260505152015 | 71 | 191 | 7.0 | 14.0 | 0.00 | 0.00 | 0.00 | 49 | 1011.0 |
| 20260505151515 | 71 | 225 | 5.0 | 14.0 | 0.00 | 0.00 | 0.00 | 49 | 1011.0 |
| 20260505151014 | 71 | 225 | 6.0 | 15.0 | 0.00 | 0.00 | 0.00 | 49 | 1011.0 |
| 20260505150517 | 71 | 189 | 7.0 | 15.0 | 0.00 | 0.00 | 0.00 | 48 | 1011.0 |
| 20260505140611 | 71 | 212 | 8.0 | 17.0 | 0.00 | 0.00 | 0.00 | 53 | 1011.4 |
| 20260505125004 | 72 | 209 | 4.0 | 12.0 | 0.00 | 0.00 | 0.00 | 53 | 1011.9 |
| 20260505124503 | 71 | 166 | 4.0 | 15.0 | 0.00 | 0.00 | 0.00 | 54 | 1011.9 |
| 20260505124003 | 72 | 189 | 9.0 | 15.0 | 0.00 | 0.00 | 0.00 | 51 | 1012.0 |
| 20260505123504 | 73 | 188 | 6.0 | 11.0 | 0.00 | 0.00 | 0.00 | 50 | 1012.0 |
| 20260505123002 | 73 | 146 | 6.0 | 11.0 | 0.00 | 0.00 | 0.00 | 48 | 1012.0 |
| 20260505122503 | 74 | 198 | 7.0 | 11.0 | 0.00 | 0.00 | 0.00 | 45 | 1012.0 |
| 20260505122001 | 74 | 215 | 3.0 | 16.0 | 0.00 | 0.00 | 0.00 | 46 | 1012.0 |
| 20260505121501 | 73 | 159 | 8.0 | 16.0 | 0.00 | 0.00 | 0.00 | 43 | 1012.0 |
| 20260505121001 | 73 | 173 | 7.0 | 15.0 | 0.00 | 0.00 | 0.00 | 43 | 1012.0 |
| 20260505120500 | 73 | 166 | 7.0 | 15.0 | 0.00 | 0.00 | 0.00 | 43 | 1012.1 |
| 20260505120000 | 74 | 178 | 6.0 | 12.0 | 0.00 | 0.00 | 0.00 | 43 | 1012.1 |
| 20260505115600 | 73 | 194 | 4.0 | 10.0 | 0.00 | 0.00 | 0.00 | 43 | 1012.2 |
| 20260505115100 | 73 | 183 | 7.0 | 13.0 | 0.00 | 0.00 | 0.00 | 43 | 1012.2 |
| 20260505114601 | 73 | 175 | 7.0 | 12.0 | 0.00 | 0.00 | 0.00 | 42 | 1012.3 |
| 20260505114058 | 73 | 198 | 5.0 | 10.0 | 0.00 | 0.00 | 0.00 | 43 | 1012.5 |
| 20260505113600 | 73 | 208 | 5.0 | 11.0 | 0.00 | 0.00 | 0.00 | 42 | 1012.4 |
| 20260505113111 | 73 | 207 | 6.0 | 11.0 | 0.00 | 0.00 | 0.00 | 44 | 1012.4 |
| 20260505112557 | 73 | 187 | 4.0 | 8.0 | 0.00 | 0.00 | 0.00 | 44 | 1012.5 |
| 20260505112056 | 73 | 165 | 1.0 | 11.0 | 0.00 | 0.00 | 0.00 | 52 | 1012.4 |